QPF
0.03 0.04 0.04 0.03 0.01 0.00 0.00 0.00 0.00 0.00 0.00 0.00 0.00 0.00 0.00 0.00 0.00 0.00 0.00 0.00 0.00 0.00 0.00 0.00 0.00 0.00 0.00 0.00 0.00 0.00 0.00 0.03 0.06 0.01 0.01 0.00 0.00 0.00 0.00 0.00 0.00 0.00 0.00
0.01 0.01 0.02 0.01 0.00 0.00 0.00 0.00 0.00 0.00 0.00 0.00 0.00 0.00 0.00 0.00 0.00 0.00 0.00 0.00 0.00 0.00 0.00 0.00 0.00 0.00 0.00 0.00 0.00 0.00 0.00 0.01 0.00 0.00 0.00 0.00 0.00 0.00 0.00 0.00 0.00 0.00 0.00
0.00 0.00 0.00 0.00 0.00 0.00 0.00 0.00 0.00 0.00 0.00 0.00 0.00 0.00 0.00 0.00 0.00 0.00 0.00 0.00 0.00 0.00 0.00 0.00 0.00 0.00 0.00 0.00 0.00 0.00 0.01 0.01 0.00 0.00 0.00 0.00 0.00 0.00 0.01 0.01 0.01 0.01 0.00
0.01 0.00 0.00 0.00 0.00 0.00 0.00 0.00 0.00 0.00 0.00 0.00 0.00 0.00 0.00 0.00 0.00 0.00 0.00 0.00 0.00 0.00 0.00 0.00 0.00 0.00 0.00 0.00 0.00 0.00 0.00 0.01 0.01 0.01 0.01 0.00 0.00 0.00 0.02 0.02 0.02 0.02 0.00
0.00 0.00 0.00 0.00 0.00 0.00 0.00 0.00 0.00 0.00 0.00 0.00 0.00 0.00 0.00 0.00 0.00 0.00 0.00 0.00 0.00 0.00 0.00 0.00 0.00 0.00 0.00 0.00 0.00 0.00 0.00 0.00 0.01 0.01 0.01 0.01 0.00 0.00 0.00 0.01 0.02 0.01 0.00
0.00 0.00 0.00 0.00 0.00 0.00 0.00 0.00 0.00 0.00 0.00 0.00 0.00 0.00 0.00 0.00 0.00 0.00 0.00 0.00 0.00 0.00 0.00 0.00 0.00 0.00 0.00 0.00 0.00 0.00 0.00 0.00 0.00 0.00 0.00 0.01 0.00 0.00 0.00 0.02 0.02 0.02 0.01
0.00 0.00 0.00 0.00 0.00 0.00 0.00 0.00 0.00 0.00 0.00 0.00 0.00 0.00 0.00 0.00 0.00 0.00 0.00 0.00 0.00 0.00 0.00 0.00 0.00 0.00 0.00 0.00 0.00 0.00 0.00 0.00 0.00 0.00 0.00 0.00 0.00 0.00 0.00 0.00 0.01 0.02 0.00
0.00 0.00 0.00 0.00 0.00 0.00 0.00 0.00 0.00 0.00 0.00 0.00 0.00 0.00 0.00 0.00 0.00 0.00 0.00 0.00 0.00 0.00 0.00 0.00 0.00 0.00 0.00 0.00 0.00 0.00 0.00 0.00 0.00 0.00 0.00 0.00 0.00 0.00 0.00 0.00 0.00 0.01 0.00
0.00 0.00 0.00 0.00 0.00 0.00 0.00 0.00 0.00 0.00 0.00 0.00 0.00 0.00 0.00 0.00 0.00 0.00 0.00 0.00 0.00 0.00 0.00 0.00 0.00 0.00 0.00 0.00 0.00 0.00 0.00 0.00 0.00 0.00 0.00 0.00 0.00 0.00 0.01 0.03 0.02 0.03 0.01
0.00 0.00 0.00 0.00 0.00 0.00 0.00 0.00 0.00 0.00 0.00 0.00 0.00 0.00 0.00 0.00 0.00 0.00 0.00 0.00 0.00 0.00 0.00 0.00 0.00 0.00 0.00 0.00 0.00 0.00 0.00 0.00 0.00 0.00 0.00 0.00 0.00 0.00 0.00 0.02 0.02 0.02 0.02
0.00 0.00 0.00 0.00 0.00 0.00 0.00 0.00 0.00 0.00 0.00 0.00 0.00 0.00 0.00 0.00 0.00 0.00 0.00 0.00 0.00 0.00 0.00 0.00 0.00 0.00 0.00 0.00 0.00 0.00 0.00 0.00 0.00 0.00 0.00 0.00 0.00 0.00 0.00 0.00 0.00 0.00 0.00
0.00 0.00 0.00 0.00 0.00 0.00 0.00 0.00 0.00 0.00 0.00 0.00 0.00 0.00 0.00 0.00 0.00 0.00 0.00 0.00 0.00 0.00 0.00 0.00 0.00 0.00 0.00 0.00 0.00 0.00 0.00 0.00 0.00 0.00 0.00 0.00 0.00 0.00 0.00 0.01 0.00 0.00 0.00
0.00 0.00 0.00 0.00 0.00 0.00 0.00 0.00 0.00 0.00 0.00 0.00 0.00 0.00 0.00 0.00 0.00 0.00 0.00 0.00 0.00 0.00 0.00 0.00 0.00 0.00 0.00 0.00 0.00 0.00 0.00 0.00 0.00 0.00 0.00 0.00 0.00 0.00 0.00 0.01 0.02 0.02 0.01
0.00 0.00 0.00 0.00 0.00 0.00 0.00 0.00 0.00 0.00 0.00 0.00 0.00 0.00 0.00 0.00 0.00 0.00 0.00 0.00 0.00 0.00 0.00 0.00 0.00 0.00 0.00 0.00 0.00 0.00 0.00 0.00 0.00 0.00 0.00 0.00 0.00 0.00 0.00 0.00 0.00 0.01 0.02
0.01 0.00 0.00 0.00 0.00 0.00 0.00 0.00 0.00 0.00 0.00 0.00 0.00 0.00 0.00 0.00 0.00 0.00 0.00 0.00 0.00 0.00 0.00 0.00 0.00 0.00 0.00 0.00 0.00 0.00 0.00 0.00 0.00 0.00 0.00 0.01 0.03 0.04 0.02 0.02 0.01 0.01 0.01
0.01 0.00 0.00 0.00 0.00 0.00 0.00 0.00 0.00 0.00 0.00 0.00 0.00 0.00 0.00 0.00 0.00 0.00 0.00 0.00 0.00 0.00 0.00 0.00 0.00 0.00 0.00 0.00 0.00 0.00 0.00 0.01 0.01 0.01 0.00 0.00 0.00 0.01 0.02 0.03 0.04 0.04 0.02
0.00 0.00 0.00 0.00 0.00 0.00 0.00 0.00 0.00 0.00 0.00 0.00 0.00 0.00 0.00 0.00 0.00 0.00 0.00 0.00 0.00 0.00 0.00 0.00 0.00 0.00 0.00 0.00 0.00 0.00 0.00 0.01 0.05 0.05 0.02 0.01 0.01 0.01 0.01 0.01 0.02 0.03 0.03
0.00 0.00 0.00 0.00 0.00 0.00 0.00 0.00 0.00 0.00 0.00 0.00 0.00 0.00 0.00 0.00 0.00 0.00 0.00 0.00 0.00 0.00 0.00 0.00 0.00 0.00 0.00 0.00 0.00 0.00 0.00 0.01 0.07 0.17 0.14 0.08 0.05 0.03 0.03 0.02 0.04 0.05 0.04
0.00 0.00 0.00 0.00 0.00 0.00 0.00 0.00 0.00 0.00 0.00 0.00 0.00 0.00 0.00 0.00 0.00 0.00 0.00 0.00 0.00 0.00 0.00 0.00 0.00 0.00 0.00 0.00 0.00 0.00 0.01 0.01 0.02 0.10 0.17 0.19 0.11 0.09 0.06 0.06 0.04 0.05 0.06
0.00 0.00 0.00 0.00 0.00 0.00 0.00 0.00 0.00 0.00 0.00 0.00 0.00 0.00 0.00 0.00 0.00 0.00 0.00 0.00 0.00 0.00 0.00 0.00 0.00 0.00 0.00 0.01 0.02 0.03 0.06 0.08 0.06 0.02 0.03 0.07 0.08 0.12 0.14 0.12 0.10 0.07 0.04
0.00 0.00 0.00 0.00 0.00 0.00 0.00 0.00 0.00 0.00 0.00 0.00 0.00 0.00 0.00 0.00 0.00 0.00 0.00 0.00 0.00 0.00 0.00 0.00 0.00 0.00 0.00 0.00 0.01 0.02 0.03 0.02 0.02 0.03 0.06 0.06 0.06 0.06 0.07 0.10 0.08 0.06 0.05
0.00 0.00 0.00 0.00 0.00 0.00 0.00 0.00 0.00 0.00 0.00 0.00 0.00 0.00 0.00 0.00 0.00 0.00 0.00 0.00 0.00 0.00 0.00 0.00 0.00 0.00 0.00 0.00 0.00 0.01 0.01 0.02 0.02 0.01 0.02 0.04 0.05 0.03 0.02 0.02 0.02 0.02 0.02
0.00 0.00 0.00 0.00 0.00 0.00 0.00 0.00 0.00 0.00 0.00 0.00 0.00 0.00 0.00 0.00 0.00 0.00 0.00 0.00 0.00 0.00 0.00 0.00 0.00 0.00 0.00 0.00 0.00 0.00 0.00 0.00 0.00 0.00 0.00 0.00 0.00 0.00 0.00 0.00 0.01 0.01 0.01
0.00 0.00 0.00 0.00 0.00 0.00 0.00 0.00 0.00 0.00 0.00 0.00 0.00 0.00 0.00 0.00 0.00 0.00 0.00 0.00 0.00 0.00 0.00 0.00 0.00 0.00 0.00 0.00 0.00 0.00 0.00 0.00 0.00 0.00 0.00 0.00 0.00 0.00 0.00 0.00 0.01 0.02 0.01
0.00 0.00 0.00 0.00 0.00 0.00 0.00 0.00 0.00 0.00 0.00 0.00 0.00 0.00 0.00 0.00 0.00 0.00 0.00 0.00 0.00 0.00 0.00 0.00 0.00 0.00 0.00 0.00 0.00 0.00 0.00 0.00 0.00 0.00 0.00 0.00 0.00 0.00 0.00 0.00 0.00 0.00 0.00
0.00 0.00 0.00 0.00 0.00 0.00 0.00 0.00 0.00 0.00 0.00 0.00 0.00 0.00 0.00 0.00 0.00 0.00 0.00 0.00 0.00 0.00 0.00 0.00 0.00 0.00 0.00 0.00 0.00 0.00 0.00 0.00 0.00 0.00 0.00 0.00 0.00 0.00 0.00 0.00 0.00 0.00 0.00
MSLP
1020.76 1020.73 1020.72 1020.72 1020.73 1020.76 1020.95 1021.01 1021.13 1021.05 1020.99 1021.01 1020.97 1020.67 1020.05 1020.26 1019.87 1019.53 1019.38 1018.82 1018.37 1017.66 1017.06 1016.52 1015.93 1015.71 1015.29 1014.69 1014.43 1014.17 1013.90 1013.63 1013.31 1012.13 1012.11 1011.51 1011.14 1010.85 1010.42 1010.12 1009.89 1009.69 1009.66
1020.83 1020.82 1020.71 1020.77 1020.47 1020.88 1021.38 1020.94 1020.77 1021.39 1021.37 1021.47 1021.01 1020.75 1020.73 1020.61 1020.34 1020.01 1019.77 1019.17 1018.65 1017.84 1017.22 1016.47 1015.71 1015.24 1014.82 1014.56 1014.11 1013.79 1013.34 1012.80 1012.78 1012.13 1011.42 1011.03 1010.81 1010.43 1010.14 1009.97 1009.68 1009.25 1009.11
1020.93 1021.09 1021.17 1021.27 1021.23 1020.49 1021.21 1020.51 1020.94 1021.21 1021.15 1021.32 1021.21 1020.84 1020.66 1020.59 1020.38 1019.90 1019.54 1018.90 1018.31 1017.77 1017.31 1016.75 1016.26 1015.61 1014.71 1014.05 1013.56 1013.28 1013.06 1012.57 1012.04 1011.55 1010.82 1010.53 1010.16 1010.09 1009.82 1009.46 1009.18 1008.89 1008.41
1021.11 1021.17 1020.96 1020.59 1020.48 1020.43 1020.75 1021.04 1020.64 1020.97 1021.40 1021.42 1021.28 1020.59 1020.68 1020.71 1020.30 1019.72 1019.47 1018.95 1018.36 1017.77 1017.20 1016.62 1016.08 1015.38 1014.78 1014.22 1013.53 1012.81 1012.35 1012.03 1011.50 1011.03 1010.54 1009.98 1009.75 1009.36 1009.35 1009.19 1008.78 1008.43 1008.15
1020.51 1020.59 1020.42 1020.49 1020.49 1020.66 1021.26 1021.26 1021.18 1021.53 1021.45 1021.51 1021.19 1020.72 1020.66 1020.59 1020.14 1020.00 1019.45 1018.75 1018.09 1017.41 1016.89 1016.19 1015.39 1014.70 1014.07 1013.67 1013.34 1012.68 1012.28 1011.73 1011.16 1010.85 1010.41 1010.01 1009.47 1009.09 1008.95 1008.64 1008.34 1007.90 1007.24
1020.34 1020.43 1020.48 1020.69 1020.84 1021.15 1021.33 1021.40 1021.49 1021.28 1021.19 1021.09 1020.61 1020.44 1020.34 1020.31 1019.85 1019.58 1019.24 1018.47 1017.78 1017.05 1016.12 1015.40 1014.72 1013.95 1013.21 1012.64 1012.18 1011.67 1011.48 1011.21 1010.63 1010.29 1009.78 1009.31 1008.89 1008.84 1008.83 1008.49 1008.15 1007.92 1007.51
1020.48 1020.62 1020.72 1020.80 1021.01 1021.05 1020.99 1020.97 1021.09 1021.20 1021.00 1020.84 1020.67 1020.52 1020.52 1020.07 1019.69 1019.17 1018.77 1018.02 1017.34 1016.64 1015.80 1014.74 1013.57 1012.90 1012.27 1011.78 1011.01 1010.70 1010.41 1010.04 1009.66 1009.52 1008.80 1008.49 1008.29 1008.16 1008.12 1007.87 1007.77 1007.53 1006.96
1020.46 1020.50 1020.53 1020.62 1020.88 1020.94 1021.03 1021.08 1021.02 1020.85 1020.77 1020.61 1020.45 1020.28 1019.95 1019.43 1019.08 1018.62 1017.93 1017.57 1016.84 1015.83 1015.02 1013.90 1012.80 1011.72 1011.36 1010.98 1010.30 1009.70 1009.24 1008.98 1008.70 1008.38 1007.72 1007.47 1007.39 1007.40 1007.27 1007.07 1006.80 1006.40 1006.04
1020.52 1020.54 1020.57 1020.65 1020.79 1020.80 1020.86 1020.72 1020.51 1020.43 1020.25 1020.08 1019.78 1019.35 1019.08 1018.56 1018.12 1017.90 1017.15 1016.30 1015.21 1014.18 1013.48 1012.66 1011.77 1010.48 1010.21 1009.96 1009.27 1008.61 1007.98 1007.43 1007.65 1007.38 1007.09 1006.77 1006.50 1006.41 1006.47 1006.82 1006.38 1006.25 1004.99
1020.42 1020.40 1020.31 1020.29 1020.38 1020.44 1020.17 1020.11 1019.83 1019.71 1019.62 1019.38 1018.99 1018.56 1018.29 1018.07 1017.56 1016.80 1016.21 1015.47 1014.41 1013.00 1011.70 1010.79 1010.20 1009.45 1008.76 1008.51 1008.49 1007.73 1006.77 1006.30 1006.53 1006.21 1005.88 1005.39 1005.14 1004.95 1004.91 1005.10 1005.14 1004.90 1004.51
1020.01 1019.93 1019.89 1019.78 1019.73 1019.55 1019.38 1019.20 1019.00 1019.01 1018.92 1018.56 1018.21 1017.65 1017.23 1016.88 1016.40 1016.16 1015.82 1015.23 1013.84 1011.98 1010.78 1009.65 1008.92 1008.42 1007.78 1007.17 1006.78 1006.22 1005.43 1005.39 1005.28 1005.15 1004.87 1004.40 1004.07 1003.62 1003.25 1003.11 1003.22 1003.28 1002.74
1019.59 1019.62 1019.54 1019.36 1019.09 1018.86 1018.70 1018.38 1018.32 1018.20 1017.98 1017.56 1017.20 1016.78 1016.42 1015.95 1015.66 1015.50 1015.03 1014.45 1013.12 1011.35 1009.43 1007.93 1006.90 1006.34 1005.93 1005.61 1005.36 1004.95 1004.87 1004.96 1004.80 1004.31 1003.91 1003.34 1002.97 1002.68 1002.29 1002.00 1001.53 1001.46 1001.08
1019.32 1019.34 1019.16 1018.81 1018.45 1018.14 1018.05 1017.69 1017.57 1017.11 1016.95 1016.62 1016.34 1015.92 1015.49 1014.97 1014.88 1014.72 1014.23 1013.29 1011.88 1010.15 1008.38 1006.59 1005.24 1004.65 1004.47 1004.24 1003.82 1003.61 1003.70 1003.65 1003.46 1003.12 1002.51 1002.10 1002.09 1001.79 1001.29 1000.90 1000.47 1000.20 1000.16
1019.15 1019.06 1018.73 1018.47 1017.99 1017.31 1016.90 1016.56 1016.49 1016.27 1016.04 1015.81 1015.45 1015.07 1014.58 1014.22 1014.34 1014.11 1013.43 1012.32 1010.57 1008.84 1007.12 1005.51 1004.10 1003.37 1003.04 1002.62 1002.20 1002.03 1002.04 1002.07 1002.02 1001.65 1001.36 1001.00 1000.76 1000.47 999.87 999.61 999.72 999.58 999.49
1018.81 1018.66 1018.29 1017.91 1017.48 1017.07 1016.37 1015.89 1015.70 1015.12 1014.90 1014.60 1014.20 1013.99 1013.92 1013.92 1013.74 1013.42 1012.89 1011.89 1010.53 1008.73 1006.78 1005.38 1004.16 1003.22 1002.33 1001.42 1001.14 1000.96 1000.82 1000.81 1000.64 1000.23 1000.07 999.70 999.41 999.26 998.68 998.38 998.55 998.87 998.88
1018.37 1018.09 1017.75 1017.38 1016.89 1016.37 1015.89 1015.39 1014.66 1014.09 1013.53 1013.33 1012.98 1013.16 1012.83 1013.06 1013.05 1012.62 1012.08 1011.29 1010.17 1008.46 1006.78 1005.40 1004.19 1003.36 1002.20 1000.99 1000.60 1000.30 1000.07 999.84 999.53 999.28 998.92 998.64 998.24 997.91 997.73 997.64 997.81 998.14 998.14
1017.45 1017.27 1016.98 1016.60 1016.22 1015.73 1015.19 1014.70 1014.23 1013.18 1012.72 1012.53 1012.15 1011.85 1012.03 1012.30 1012.53 1012.03 1011.37 1010.66 1009.73 1008.57 1007.40 1005.92 1004.45 1003.32 1001.74 1000.75 1000.26 999.84 999.38 998.99 998.83 998.49 997.96 997.40 997.24 997.06 996.80 996.99 996.98 997.11 997.28
1016.62 1016.34 1016.03 1015.68 1015.29 1014.83 1014.34 1013.89 1013.34 1012.99 1012.52 1011.98 1011.18 1011.15 1011.33 1011.78 1011.86 1011.31 1010.98 1010.60 1009.90 1008.64 1007.85 1006.50 1004.89 1003.52 1002.34 1000.87 1000.06 999.40 998.77 998.33 998.03 997.40 996.70 996.16 995.72 995.74 995.91 996.07 996.21 996.27 996.47
1015.74 1015.51 1015.05 1014.84 1014.43 1013.92 1013.47 1013.04 1012.60 1012.11 1011.73 1011.41 1010.92 1010.91 1011.02 1011.29 1011.22 1010.89 1010.68 1010.70 1010.33 1009.47 1008.51 1007.15 1006.05 1004.60 1003.57 1002.29 1000.88 999.34 998.28 997.73 997.34 996.20 995.48 995.06 994.53 994.59 994.94 995.19 995.37 995.59 995.91
1014.74 1014.41 1014.19 1013.98 1013.50 1013.02 1012.55 1012.14 1011.82 1011.28 1011.02 1010.65 1010.46 1010.40 1010.64 1010.90 1010.91 1010.57 1010.31 1010.16 1009.93 1009.37 1008.89 1007.97 1006.83 1005.79 1004.80 1003.73 1002.33 1000.90 999.66 998.53 997.74 996.88 995.95 995.28 994.88 994.45 994.63 994.88 995.22 995.81 995.81
1014.11 1013.65 1013.22 1012.86 1012.55 1012.06 1011.55 1011.22 1010.78 1010.57 1010.19 1009.88 1009.56 1009.48 1009.55 1010.11 1010.12 1009.97 1009.72 1009.57 1009.25 1008.97 1008.57 1008.17 1007.55 1006.67 1005.80 1004.73 1003.72 1002.69 1001.21 1000.28 999.29 998.17 997.14 996.44 995.87 995.46 995.08 995.09 995.24 995.81 996.57
1012.96 1012.76 1012.42 1012.05 1011.57 1011.16 1010.78 1010.30 1009.94 1009.78 1009.62 1009.18 1008.91 1009.21 1009.16 1009.59 1009.44 1009.18 1008.97 1008.79 1008.37 1008.20 1008.05 1007.82 1007.44 1006.87 1006.27 1005.71 1004.89 1004.03 1003.06 1001.75 1000.97 999.64 998.58 997.43 997.03 997.00 996.67 996.23 996.03 996.26 997.09
1012.09 1011.92 1011.50 1011.10 1010.61 1010.21 1009.82 1009.22 1008.99 1008.59 1008.40 1008.24 1008.13 1008.39 1008.65 1008.62 1008.41 1008.26 1008.12 1007.75 1007.77 1007.62 1007.44 1007.34 1007.03 1006.49 1005.82 1005.17 1004.78 1004.41 1004.07 1003.11 1002.13 1001.09 1000.11 999.56 999.35 998.19 997.66 997.41 997.26 997.22 997.52
1011.16 1010.88 1010.59 1010.19 1009.70 1009.33 1008.92 1008.43 1007.98 1007.70 1007.59 1007.67 1007.31 1007.37 1007.35 1007.40 1007.34 1007.30 1006.95 1006.74 1006.74 1006.74 1006.70 1006.66 1006.46 1006.24 1005.79 1005.00 1004.53 1004.08 1003.74 1003.29 1002.40 1001.47 1001.15 1001.08 1000.62 999.80 999.39 998.88 998.60 998.60 998.91
1010.42 1010.17 1009.79 1009.35 1008.93 1008.43 1008.01 1007.70 1007.35 1007.16 1006.98 1006.74 1006.66 1006.53 1006.49 1006.93 1006.58 1006.51 1006.22 1005.83 1005.68 1005.71 1005.81 1005.72 1005.55 1005.44 1005.48 1005.38 1004.65 1004.12 1003.58 1002.89 1002.53 1002.26 1001.85 1001.51 1001.34 1000.98 1000.59 1000.15 999.89 999.61 999.46
1009.82 1009.49 1009.19 1008.87 1008.49 1007.86 1007.36 1007.04 1006.88 1006.72 1006.41 1006.05 1005.82 1005.76 1005.93 1005.75 1005.89 1005.38 1005.46 1005.32 1004.97 1004.75 1004.83 1005.02 1004.85 1004.71 1004.78 1004.75 1004.59 1004.32 1003.98 1003.32 1002.92 1002.58 1002.34 1002.03 1001.86 1001.53 1001.30 1001.06 1000.67 1000.46 1000.44
Thickness
5731 5732 5732 5732 5731 5730 5728 5727 5724 5724 5723 5720 5720 5720 5725 5723 5725 5730 5731 5737 5741 5748 5753 5757 5762 5764 5768 5772 5774 5775 5775 5775 5772 5791 5791 5797 5799 5801 5805 5808 5812 5815 5817
5721 5721 5722 5721 5723 5718 5713 5717 5716 5711 5708 5707 5711 5712 5712 5711 5714 5716 5717 5722 5728 5737 5742 5748 5754 5756 5760 5762 5764 5767 5770 5775 5771 5775 5788 5791 5793 5798 5800 5802 5805 5809 5811
5710 5709 5707 5706 5705 5711 5703 5710 5705 5700 5703 5699 5700 5705 5705 5705 5705 5707 5709 5717 5721 5726 5728 5732 5738 5742 5750 5754 5757 5759 5761 5765 5769 5771 5781 5788 5791 5792 5792 5796 5799 5802 5807
5698 5696 5698 5701 5700 5701 5696 5694 5696 5692 5690 5690 5691 5697 5694 5692 5693 5696 5698 5701 5705 5712 5718 5722 5727 5731 5736 5739 5743 5748 5751 5754 5759 5762 5769 5777 5781 5787 5786 5785 5787 5794 5797
5693 5690 5690 5689 5688 5686 5682 5681 5682 5679 5680 5677 5678 5682 5679 5676 5679 5678 5683 5688 5693 5698 5703 5709 5715 5721 5726 5728 5729 5735 5736 5737 5744 5747 5751 5760 5770 5773 5773 5779 5778 5785 5794
5683 5681 5679 5677 5674 5670 5668 5666 5665 5666 5666 5664 5667 5667 5664 5660 5661 5662 5663 5670 5675 5681 5689 5695 5699 5706 5711 5716 5720 5724 5727 5727 5733 5734 5740 5747 5758 5762 5764 5765 5766 5767 5770
5668 5666 5664 5663 5661 5659 5659 5659 5656 5654 5654 5653 5652 5650 5646 5646 5647 5649 5648 5654 5657 5661 5666 5675 5685 5689 5693 5696 5705 5709 5714 5718 5723 5725 5731 5740 5744 5752 5752 5755 5757 5759 5766
5657 5655 5653 5652 5649 5647 5644 5642 5641 5642 5641 5638 5636 5634 5633 5634 5632 5630 5632 5632 5637 5643 5647 5655 5663 5674 5675 5674 5678 5686 5697 5704 5711 5713 5722 5730 5735 5741 5743 5746 5750 5756 5764
5642 5641 5640 5639 5636 5633 5631 5630 5629 5628 5626 5624 5623 5622 5619 5618 5617 5612 5613 5617 5624 5629 5632 5637 5641 5652 5654 5653 5658 5666 5676 5690 5693 5697 5705 5713 5721 5728 5733 5727 5733 5736 5750
5630 5629 5628 5626 5624 5622 5622 5619 5619 5617 5614 5614 5613 5610 5606 5601 5597 5599 5598 5599 5604 5616 5625 5627 5628 5629 5633 5632 5628 5641 5657 5673 5670 5677 5688 5700 5708 5719 5724 5725 5731 5727 5737
5618 5618 5617 5616 5615 5615 5615 5613 5611 5608 5605 5605 5603 5601 5597 5593 5590 5584 5581 5580 5584 5601 5606 5610 5612 5612 5615 5618 5621 5628 5640 5647 5648 5657 5669 5681 5691 5705 5718 5725 5729 5728 5737
5609 5607 5606 5606 5607 5609 5607 5606 5603 5599 5599 5598 5596 5594 5590 5588 5583 5577 5574 5571 5572 5585 5597 5604 5607 5608 5610 5612 5613 5619 5618 5617 5622 5634 5647 5664 5675 5685 5700 5711 5722 5726 5739
5597 5596 5597 5599 5601 5602 5600 5600 5598 5598 5595 5593 5590 5590 5589 5584 5578 5573 5570 5568 5571 5582 5592 5599 5604 5603 5602 5602 5605 5607 5606 5608 5611 5619 5633 5646 5655 5668 5682 5692 5707 5717 5724
5586 5587 5589 5591 5594 5598 5598 5598 5594 5592 5589 5587 5587 5586 5587 5583 5570 5565 5565 5566 5572 5581 5591 5596 5598 5598 5597 5598 5600 5600 5600 5601 5605 5614 5621 5631 5638 5650 5666 5680 5686 5698 5707
5578 5580 5582 5586 5587 5588 5591 5591 5590 5591 5589 5587 5588 5587 5577 5573 5565 5562 5558 5560 5564 5572 5583 5587 5588 5588 5590 5590 5587 5587 5588 5591 5598 5608 5615 5624 5631 5639 5653 5666 5675 5682 5691
5571 5573 5576 5578 5582 5585 5586 5587 5591 5593 5594 5591 5588 5582 5583 5573 5566 5561 5557 5556 5557 5565 5572 5579 5579 5575 5577 5580 5577 5575 5575 5581 5587 5598 5609 5618 5628 5637 5644 5654 5662 5667 5679
5573 5575 5575 5579 5582 5583 5587 5589 5590 5595 5594 5592 5591 5587 5581 5574 5566 5561 5556 5554 5552 5555 5561 5564 5565 5568 5573 5573 5570 5570 5571 5574 5579 5590 5604 5617 5624 5632 5641 5644 5652 5662 5671
5579 5579 5580 5583 5585 5588 5588 5589 5592 5590 5590 5590 5595 5589 5581 5573 5566 5562 5555 5550 5549 5550 5548 5550 5557 5563 5563 5568 5569 5570 5572 5574 5579 5592 5607 5619 5629 5634 5638 5641 5647 5657 5665
5583 5584 5586 5587 5588 5589 5589 5590 5592 5592 5592 5591 5592 5585 5578 5571 5565 5559 5552 5546 5541 5539 5537 5541 5541 5548 5550 5554 5562 5572 5578 5582 5587 5602 5615 5623 5632 5636 5638 5641 5645 5650 5656
5590 5590 5589 5590 5591 5592 5593 5593 5593 5594 5593 5593 5590 5587 5580 5571 5566 5561 5556 5551 5542 5540 5536 5537 5539 5540 5541 5542 5548 5559 5568 5579 5587 5598 5608 5617 5624 5630 5631 5631 5632 5633 5642
5593 5595 5595 5595 5595 5596 5597 5596 5597 5595 5595 5594 5594 5591 5584 5574 5568 5563 5559 5552 5549 5543 5539 5536 5534 5533 5535 5539 5541 5545 5557 5563 5573 5584 5595 5603 5610 5615 5620 5621 5623 5623 5625
5600 5599 5598 5598 5601 5600 5598 5599 5597 5595 5593 5594 5592 5586 5578 5574 5568 5565 5562 5556 5551 5546 5542 5537 5535 5534 5532 5531 5533 5537 5543 5551 5557 5564 5577 5588 5589 5592 5598 5604 5604 5606 5612
5605 5603 5602 5602 5604 5604 5604 5603 5599 5598 5597 5594 5591 5585 5577 5572 5571 5567 5563 5560 5554 5548 5545 5541 5537 5536 5538 5538 5537 5535 5534 5541 5547 5556 5562 5565 5569 5575 5585 5590 5594 5599 5602
5609 5608 5607 5607 5605 5604 5601 5604 5601 5598 5595 5589 5589 5583 5581 5574 5570 5567 5565 5561 5557 5554 5549 5544 5542 5538 5536 5540 5540 5539 5538 5537 5543 5548 5551 5549 5553 5562 5569 5575 5581 5581 5578
5612 5609 5607 5606 5604 5606 5606 5601 5598 5596 5592 5589 5585 5582 5579 5574 5570 5565 5562 5562 5560 5556 5552 5548 5544 5540 5536 5534 5536 5538 5540 5543 5542 5542 5543 5545 5546 5549 5554 5560 5565 5569 5572
5612 5610 5607 5605 5605 5606 5603 5600 5596 5592 5589 5587 5585 5580 5573 5570 5566 5566 5560 5556 5556 5554 5549 5545 5543 5542 5538 5533 5531 5530 5531 5535 5536 5536 5538 5538 5540 5542 5544 5548 5554 5557 5559